Wind_Speed
13 13 13 13 13 13 11 11 11 11 11 10 10 10 9 8 7 8 8 8 7 7 7 8 8 8 8 9 9 10 10 10 11 11 10 10 10 9 9 9 9 8 8 8 7 7 7 6 5
13 14 14 14 14 11 11 12 12 12 11 11 10 10 10 9 8 8 8 8 7 8 8 8 9 8 8 8 9 10 10 10 11 11 10 9 9 8 9 9 8 8 7 7 6 6 7 6 5
13 14 13 14 13 11 12 12 12 12 11 11 11 10 9 10 9 9 8 8 8 8 8 9 9 9 9 9 10 10 10 10 11 10 9 9 8 9 9 8 8 7 7 7 6 7 6 5 5
13 14 14 14 12 12 12 12 12 12 12 12 12 11 10 10 10 10 9 8 8 8 8 8 8 8 9 9 10 10 10 11 10 9 9 8 8 9 9 7 7 7 6 6 5 6 6 5 4
13 14 15 14 13 12 12 12 12 13 13 13 13 12 12 12 11 11 10 10 8 7 7 8 9 9 10 9 9 10 10 10 10 9 9 8 8 8 8 7 7 6 6 6 5 5 5 4 4
14 15 15 13 13 13 13 12 13 13 13 13 13 13 13 14 13 12 11 10 10 9 8 9 9 9 10 10 9 10 9 9 8 8 8 8 8 7 7 6 7 6 6 6 5 4 4 3 4
13 15 14 14 14 13 12 12 13 13 13 14 13 13 14 13 13 12 11 10 10 10 10 10 9 9 9 9 9 9 9 8 8 7 8 8 7 7 7 6 6 6 6 5 5 5 3 3 3
12 14 13 13 13 13 12 12 13 13 14 13 13 13 12 12 12 12 11 11 10 10 10 10 9 8 8 8 8 9 9 8 8 8 7 7 7 6 6 6 6 5 5 5 5 4 4 3 3
12 14 12 12 12 12 12 12 12 12 13 12 12 12 12 11 11 11 10 10 10 9 9 9 8 8 7 8 8 8 8 8 8 8 8 6 6 6 6 6 5 5 5 5 4 3 3 3 3
11 11 10 10 10 11 11 11 11 11 11 11 12 11 11 10 10 10 10 10 9 9 9 8 8 7 7 7 7 7 7 7 7 8 7 7 6 6 6 5 5 4 4 4 4 3 3 3 3
9 9 9 9 9 10 10 10 10 10 10 10 10 10 10 10 9 9 9 9 9 9 8 8 7 7 7 7 7 6 6 6 6 6 7 6 6 6 5 5 5 4 4 4 4 3 3 3 3
7 8 8 8 8 9 10 10 9 9 10 9 9 9 9 9 9 9 9 8 8 8 8 7 7 7 7 7 7 6 6 7 6 6 6 5 5 6 6 6 5 4 4 4 4 4 3 3 2
5 5 6 7 7 8 9 9 9 8 9 8 8 8 9 9 9 8 8 8 7 7 7 7 7 7 7 7 6 6 7 7 6 6 5 5 5 6 5 5 5 5 4 4 4 3 3 2 2
3 3 4 5 6 6 7 8 7 7 7 7 7 8 8 8 8 7 7 7 6 6 6 6 6 6 6 6 6 6 6 6 6 5 5 5 5 5 3 3 3 3 3 3 3 3 2 2 2
2 1 2 2 4 4 5 6 6 5 5 6 6 6 7 7 7 7 6 6 6 6 5 5 5 5 5 5 5 5 4 4 4 4 4 4 4 3 2 2 2 2 2 2 2 2 2 1 1
2 1 1 1 2 2 3 4 4 4 4 4 5 5 5 5 5 5 5 5 5 5 5 5 4 4 4 4 5 4 4 3 3 3 3 3 2 2 2 1 1 1 1 1 1 1 1 0 1
3 3 3 2 2 2 2 2 3 3 3 3 3 3 3 3 3 3 4 3 3 3 3 4 3 3 4 3 4 4 4 3 3 2 2 1 1 1 1 1 0 0 1 1 1 1 2 2 2
5 5 5 4 3 3 2 2 2 2 2 2 2 1 1 2 2 2 2 2 2 3 2 2 2 2 3 3 3 3 3 3 2 2 2 1 1 2 2 2 2 2 2 2 2 2 2 3 4
8 7 7 6 5 4 3 3 4 3 2 2 2 2 2 2 2 2 2 2 2 2 1 1 1 1 1 2 2 2 2 2 2 2 3 3 2 3 3 3 3 3 3 4 4 4 4 4 5
10 9 8 8 8 6 5 5 5 5 5 4 4 4 4 4 4 4 4 3 2 2 2 2 1 1 1 2 2 2 2 3 3 4 3 4 4 4 4 4 4 5 5 5 5 6 6 6 6
12 12 11 10 10 9 8 7 7 7 7 7 6 6 5 6 6 6 5 4 4 3 3 3 3 2 2 3 3 3 3 3 4 4 4 4 4 5 5 5 5 5 6 6 7 7 7 7 7
14 14 13 12 11 11 10 8 9 9 9 9 9 8 7 7 7 6 6 6 5 4 4 4 4 4 4 4 4 4 4 5 5 5 5 5 5 5 5 6 6 6 7 7 8 8 8 9 9
16 15 14 13 13 13 12 11 10 11 11 9 10 10 10 9 9 8 8 8 7 7 6 5 5 5 5 6 6 6 6 6 6 6 6 6 6 6 6 7 7 7 8 8 9 9 10 11 11
16 16 15 15 14 14 14 13 13 12 11 11 10 10 11 11 10 10 10 9 9 9 9 8 8 8 7 7 7 7 7 7 7 7 7 7 7 7 7 8 9 9 10 10 10 11 11 12 12
17 15 14 13 14 15 15 15 14 14 12 11 11 11 11 12 12 12 12 11 11 11 11 11 10 9 9 9 9 9 9 9 8 8 8 8 9 9 9 10 10 11 11 12 13 13 13 14 14
19 17 16 15 15 15 16 15 15 14 13 12 12 12 13 13 13 13 13 14 14 14 14 13 12 11 11 11 10 10 10 10 10 10 10 10 10 10 11 12 12 13 13 14 14 14 14 14 15
22 21 19 17 17 16 16 16 15 15 14 13 13 13 14 14 14 14 15 15 15 15 15 15 14 13 13 13 13 12 12 12 12 12 12 11 12 12 12 13 13 14 15 15 15 15 16 16 16
24 23 21 19 18 17 16 15 15 16 15 14 14 14 14 15 14 15 15 15 16 16 15 15 15 15 14 15 15 14 14 14 14 14 14 14 14 14 14 14 15 15 16 16 17 16 17 18 19
24 24 23 22 21 19 17 17 18 17 16 15 15 15 15 15 15 15 16 16 16 17 16 16 17 16 16 16 16 16 16 16 16 16 16 16 16 16 16 16 16 17 17 17 18 18 18 19 20
25 24 24 23 23 22 20 18 20 18 17 17 17 16 16 16 16 16 18 18 18 18 18 17 17 18 17 17 18 18 18 18 17 17 17 17 17 18 18 18 18 19 19 19 20 20 21 21 21
Wind_Direction
74 71 73 79 79 77 83 87 88 87 87 89 86 82 81 86 93 91 92 96 98 99 104 111 116 119 123 125 125 127 126 125 128 126 122 118 118 117 116 119 122 125 124 122 129 137 136 138 143
72 71 73 76 77 80 83 88 88 87 86 86 83 78 78 85 94 95 97 97 101 101 103 110 116 121 125 121 122 122 124 123 123 123 122 119 117 119 120 117 120 122 121 123 129 136 135 137 145
73 72 71 74 77 81 82 86 88 86 86 85 80 77 76 82 88 93 93 97 103 104 108 111 113 116 119 119 118 119 123 124 122 123 122 120 121 122 120 118 118 119 121 121 125 132 132 136 146
76 75 71 75 78 80 81 82 83 83 82 81 77 76 76 80 85 92 93 97 103 108 114 114 114 113 117 121 122 121 124 125 123 121 120 118 118 120 117 118 121 121 124 126 132 138 142 144 147
78 77 74 78 78 77 76 78 80 79 78 78 75 76 77 82 88 92 92 90 90 99 114 120 114 113 111 114 119 121 121 125 122 118 116 116 120 119 114 119 122 122 124 131 134 134 142 146 147
81 79 81 80 77 75 74 75 77 76 75 76 76 78 81 80 84 89 88 85 83 89 108 118 114 112 107 107 110 117 118 121 121 116 116 115 121 121 120 122 123 125 123 127 131 133 137 144 149
82 83 84 81 77 73 75 78 78 75 75 76 77 80 80 79 81 84 83 82 83 88 102 110 109 111 108 105 107 113 117 118 116 114 115 116 120 123 123 121 125 127 123 122 128 133 136 141 150
84 83 82 81 76 74 76 77 78 75 74 75 78 79 79 79 80 82 82 82 85 88 96 103 106 107 101 100 100 104 113 119 114 113 116 115 115 113 117 118 115 120 126 130 132 135 133 130 143
86 81 81 79 76 75 76 77 76 75 76 76 76 77 77 79 79 80 81 83 87 91 95 101 104 102 101 101 102 98 102 106 108 109 112 113 113 111 110 112 114 115 125 134 135 134 143 136 139
86 85 79 75 74 73 72 72 70 73 76 76 77 76 76 79 80 79 81 86 89 93 95 98 101 99 94 94 101 101 96 97 101 105 104 105 108 112 111 112 115 110 112 121 130 132 138 143 143
83 84 82 75 70 72 69 68 67 71 74 75 76 76 75 76 79 81 83 87 90 94 95 93 97 98 93 89 94 101 97 96 96 100 99 97 97 106 109 108 100 97 100 106 120 124 134 141 143
80 79 76 71 65 69 66 62 65 71 75 76 77 75 73 74 77 82 85 89 89 91 90 89 94 96 95 91 91 98 95 92 93 96 95 88 87 93 95 90 92 92 89 93 95 97 108 100 99
81 77 73 67 62 67 61 60 62 69 74 74 73 72 72 73 73 76 80 84 84 85 87 88 90 89 91 92 94 98 89 82 83 95 102 95 91 93 90 89 91 89 87 89 86 88 94 92 90
93 81 72 62 54 58 59 56 55 64 71 73 72 71 71 70 70 73 76 80 82 84 88 87 88 89 90 93 96 95 85 76 75 84 92 94 92 94 90 82 88 88 89 90 86 89 93 98 86
145 90 70 59 50 54 50 47 46 49 59 71 71 69 70 72 71 71 74 79 81 83 85 84 88 90 92 92 93 92 85 76 71 77 81 84 85 91 101 86 83 80 82 87 78 91 90 98 77
187 140 15 359 16 22 36 35 38 36 44 65 71 68 69 70 65 63 66 77 76 76 79 76 79 86 92 93 88 89 84 78 77 79 76 77 72 69 82 94 95 81 94 52 6 30 35 300 283
214 228 247 269 302 322 358 1 10 21 28 55 68 64 63 58 53 51 58 69 64 58 64 66 71 77 83 81 77 79 74 69 62 56 53 49 43 29 28 29 359 285 275 313 313 302 311 300 286
232 237 240 248 278 294 321 331 329 351 8 25 28 39 36 22 19 21 27 33 38 35 44 59 59 66 69 64 63 61 57 45 31 10 358 350 334 328 330 326 307 293 290 297 297 296 298 297 284
233 234 239 247 259 271 292 301 303 318 337 338 321 317 320 313 316 307 317 338 353 5 10 24 31 39 35 28 31 37 30 12 354 333 324 317 314 306 303 310 309 300 292 285 283 285 287 288 283
239 239 245 253 259 262 272 278 284 292 299 300 300 301 299 291 290 286 282 291 314 316 305 286 306 309 315 326 334 348 353 348 342 333 322 315 312 303 297 299 299 298 292 286 286 288 286 284 282
244 242 246 253 259 261 268 274 277 279 281 285 289 288 287 283 275 277 274 274 285 298 294 277 276 282 283 294 304 314 318 323 326 329 327 320 312 304 295 294 293 292 289 288 287 290 287 281 283
245 246 248 251 255 262 265 269 272 272 272 275 279 280 280 278 272 270 268 266 272 276 286 286 281 289 292 296 302 306 308 313 318 321 322 323 318 307 296 290 289 290 291 290 288 287 284 282 282
241 246 250 253 254 257 261 263 267 269 268 269 272 274 273 267 263 262 266 268 270 272 276 276 276 283 295 299 300 303 303 306 310 309 308 310 309 306 300 295 293 293 294 293 291 288 286 284 283
243 246 252 255 255 257 257 259 265 266 269 269 268 267 264 261 260 261 265 269 271 272 272 271 273 273 278 286 291 296 299 302 306 305 304 307 308 306 303 303 302 297 295 296 293 290 288 286 285
240 242 250 255 257 260 258 257 260 260 262 264 262 262 258 256 259 264 266 266 268 271 270 271 272 271 274 280 284 286 289 290 295 298 299 302 304 302 298 301 302 301 298 296 294 291 289 287 286
240 238 241 248 256 261 261 258 258 259 259 259 260 262 260 257 257 260 260 262 265 268 271 274 273 274 275 277 281 282 282 281 283 288 290 295 298 299 298 297 299 299 297 297 294 291 289 288 289
239 239 242 248 255 258 259 260 260 257 256 255 257 261 263 261 257 253 254 258 261 265 269 272 273 273 276 278 279 280 280 279 280 283 285 288 294 295 298 297 295 296 295 294 292 289 287 288 289
239 242 244 244 250 255 259 259 255 255 255 254 256 261 264 265 261 254 253 255 258 261 268 270 273 274 274 274 276 276 277 278 280 281 282 286 292 293 294 297 296 293 292 292 291 290 290 289 289
241 242 243 245 247 252 258 257 257 253 254 256 258 262 263 263 264 258 255 257 260 263 265 268 271 273 273 277 279 276 277 277 278 280 281 285 287 290 292 291 292 293 294 295 294 293 293 291 290
241 242 244 246 249 251 253 257 260 255 253 255 256 259 259 260 261 259 256 259 262 263 264 268 272 272 273 276 278 280 278 278 276 279 282 285 286 289 291 291 291 291 294 293 292 293 291 292 288
Height
5901 5900 5900 5900 5901 5901 5899 5899 5898 5896 5896 5895 5894 5893 5892 5892 5892 5894 5891 5889 5889 5889 5889 5889 5889 5889 5889 5890 5890 5891 5891 5891 5892 5892 5893 5894 5894 5895 5895 5896 5896 5896 5897 5897 5897 5898 5898 5898 5899
5903 5902 5902 5902 5902 5902 5902 5900 5899 5898 5897 5896 5895 5894 5893 5892 5892 5891 5891 5890 5890 5890 5890 5890 5890 5890 5891 5891 5891 5891 5892 5892 5893 5894 5894 5895 5895 5896 5896 5897 5897 5897 5898 5898 5898 5898 5898 5899 5898
5905 5904 5905 5904 5904 5904 5903 5902 5900 5899 5898 5897 5896 5895 5894 5893 5892 5892 5892 5891 5891 5891 5891 5891 5891 5892 5892 5892 5892 5892 5892 5893 5894 5895 5895 5896 5896 5896 5897 5897 5898 5898 5898 5898 5899 5899 5899 5900 5900
5907 5907 5907 5907 5906 5905 5905 5903 5902 5900 5900 5899 5897 5896 5895 5894 5893 5893 5893 5892 5892 5892 5892 5892 5893 5893 5893 5893 5893 5893 5893 5894 5895 5896 5896 5896 5896 5897 5897 5898 5898 5899 5899 5899 5899 5899 5900 5900 5900
5909 5909 5910 5909 5908 5907 5906 5905 5903 5902 5901 5900 5899 5898 5896 5895 5895 5894 5894 5894 5893 5892 5892 5893 5894 5894 5894 5894 5894 5895 5895 5895 5896 5896 5897 5897 5897 5897 5898 5898 5899 5899 5899 5899 5900 5900 5900 5900 5901
5912 5911 5913 5911 5910 5909 5908 5907 5905 5904 5903 5902 5901 5899 5898 5897 5897 5897 5896 5895 5894 5892 5892 5893 5895 5896 5896 5896 5896 5896 5896 5896 5897 5897 5898 5898 5898 5898 5899 5899 5899 5900 5900 5900 5900 5900 5901 5901 5901
5915 5914 5914 5914 5913 5911 5910 5908 5907 5906 5905 5904 5903 5902 5901 5900 5899 5899 5898 5897 5896 5895 5894 5896 5897 5897 5898 5897 5897 5897 5897 5898 5898 5899 5899 5899 5899 5899 5899 5900 5900 5900 5900 5901 5901 5901 5901 5901 5901
5916 5918 5917 5916 5915 5914 5912 5910 5909 5908 5907 5906 5905 5904 5903 5902 5901 5901 5900 5900 5899 5898 5898 5899 5899 5899 5899 5899 5899 5898 5898 5898 5899 5899 5899 5899 5899 5900 5900 5900 5900 5900 5900 5901 5901 5902 5902 5902 5902
5918 5921 5919 5918 5917 5916 5914 5913 5912 5910 5909 5908 5907 5906 5906 5905 5904 5903 5903 5902 5901 5901 5901 5901 5901 5901 5901 5900 5900 5900 5900 5900 5900 5900 5900 5900 5900 5900 5901 5901 5901 5901 5901 5901 5902 5902 5902 5902 5902
5920 5922 5921 5920 5919 5917 5916 5915 5914 5912 5912 5911 5910 5909 5907 5907 5906 5905 5905 5904 5904 5904 5903 5903 5903 5902 5902 5902 5902 5902 5901 5901 5901 5901 5901 5901 5901 5901 5901 5901 5901 5901 5901 5902 5902 5902 5902 5902 5902
5922 5923 5922 5921 5920 5919 5917 5916 5915 5914 5914 5913 5912 5911 5910 5909 5908 5907 5907 5906 5906 5906 5905 5905 5904 5904 5904 5903 5903 5903 5903 5903 5903 5903 5902 5902 5902 5902 5902 5902 5902 5902 5902 5902 5902 5902 5902 5902 5902
5924 5923 5923 5922 5921 5920 5919 5918 5917 5916 5916 5914 5913 5913 5912 5911 5910 5909 5909 5909 5908 5908 5907 5907 5906 5906 5905 5905 5905 5904 5904 5904 5904 5904 5904 5903 5903 5903 5902 5902 5903 5903 5902 5902 5902 5902 5902 5902 5902
5925 5925 5924 5923 5922 5921 5921 5920 5919 5918 5917 5916 5915 5914 5913 5913 5912 5912 5911 5911 5910 5910 5909 5908 5908 5907 5907 5906 5906 5906 5906 5905 5905 5904 5904 5904 5904 5904 5904 5904 5904 5903 5903 5903 5903 5903 5903 5903 5902
5926 5925 5925 5924 5923 5923 5922 5921 5920 5919 5918 5917 5917 5916 5915 5914 5914 5914 5913 5912 5912 5911 5911 5910 5910 5909 5908 5908 5907 5907 5907 5906 5906 5906 5906 5905 5905 5905 5905 5905 5904 5904 5904 5904 5904 5904 5903 5903 5903
5926 5926 5926 5925 5925 5924 5923 5923 5922 5921 5920 5919 5918 5917 5916 5916 5916 5915 5915 5914 5913 5913 5912 5912 5911 5910 5910 5909 5909 5908 5908 5907 5907 5907 5906 5906 5906 5905 5905 5905 5905 5905 5905 5904 5904 5904 5903 5903 5903
5926 5927 5927 5926 5925 5924 5925 5924 5923 5921 5920 5920 5919 5919 5918 5917 5917 5917 5916 5915 5915 5914 5914 5913 5912 5912 5911 5910 5910 5909 5909 5908 5908 5907 5907 5907 5906 5906 5906 5905 5905 5905 5905 5904 5904 5904 5903 5903 5903
5927 5928 5927 5926 5925 5925 5925 5924 5923 5922 5921 5920 5920 5919 5919 5919 5918 5918 5917 5917 5916 5915 5914 5914 5913 5912 5912 5911 5911 5910 5910 5909 5909 5908 5908 5907 5907 5906 5906 5906 5905 5905 5904 5904 5904 5904 5903 5903 5902
5926 5927 5926 5926 5925 5925 5924 5923 5922 5922 5921 5921 5920 5920 5920 5919 5919 5918 5918 5917 5916 5916 5915 5914 5914 5913 5912 5912 5911 5910 5910 5909 5909 5908 5908 5907 5906 5906 5906 5905 5905 5904 5904 5904 5903 5903 5903 5902 5901
5924 5924 5925 5925 5924 5924 5924 5923 5923 5922 5921 5921 5921 5920 5920 5919 5919 5918 5918 5917 5917 5916 5915 5915 5914 5913 5913 5912 5911 5911 5910 5909 5909 5908 5907 5907 5906 5905 5905 5905 5904 5904 5903 5903 5902 5902 5902 5901 5900
5921 5922 5923 5923 5923 5923 5923 5923 5922 5922 5921 5920 5920 5920 5919 5919 5919 5918 5917 5917 5916 5916 5915 5915 5914 5913 5913 5912 5911 5910 5910 5909 5908 5907 5906 5906 5905 5904 5904 5904 5903 5903 5902 5902 5901 5901 5900 5900 5899
5918 5920 5921 5921 5921 5921 5922 5922 5922 5921 5920 5920 5920 5919 5918 5918 5918 5917 5917 5916 5916 5915 5915 5914 5914 5913 5912 5911 5911 5910 5909 5908 5907 5906 5905 5905 5904 5903 5903 5902 5902 5901 5901 5900 5900 5899 5898 5898 5897
5916 5917 5917 5918 5919 5920 5920 5921 5921 5919 5919 5919 5918 5918 5917 5917 5916 5916 5916 5915 5915 5915 5914 5913 5913 5912 5912 5911 5910 5909 5908 5907 5906 5905 5904 5903 5902 5902 5901 5901 5900 5900 5899 5899 5898 5897 5896 5896 5895
5912 5913 5914 5915 5916 5917 5917 5918 5920 5918 5917 5917 5916 5916 5915 5915 5915 5914 5914 5914 5914 5914 5913 5912 5912 5911 5911 5910 5909 5908 5907 5906 5905 5904 5903 5902 5901 5900 5900 5899 5899 5898 5897 5896 5896 5895 5894 5893 5892
5908 5910 5911 5912 5913 5915 5915 5915 5916 5915 5915 5914 5914 5913 5913 5913 5913 5913 5912 5912 5912 5912 5911 5911 5910 5910 5909 5908 5907 5906 5905 5904 5904 5902 5901 5900 5899 5898 5898 5897 5896 5895 5895 5894 5893 5892 5891 5890 5889
5904 5907 5910 5911 5911 5912 5911 5911 5912 5911 5911 5910 5910 5910 5910 5910 5910 5910 5910 5910 5910 5909 5909 5909 5908 5908 5907 5906 5905 5904 5904 5903 5902 5901 5900 5898 5897 5896 5895 5894 5893 5892 5891 5890 5889 5888 5888 5887 5886
5900 5903 5906 5908 5909 5909 5907 5907 5908 5907 5907 5906 5907 5907 5907 5907 5907 5907 5907 5907 5907 5907 5906 5906 5906 5905 5904 5904 5903 5902 5901 5900 5899 5898 5897 5896 5895 5893 5892 5891 5890 5889 5888 5887 5886 5885 5884 5883 5882
5895 5898 5900 5903 5903 5904 5904 5904 5903 5903 5903 5903 5903 5903 5903 5903 5903 5904 5904 5904 5904 5904 5904 5903 5903 5902 5902 5901 5900 5899 5898 5897 5896 5896 5894 5893 5892 5890 5889 5887 5886 5885 5884 5883 5882 5880 5879 5879 5878
5890 5893 5895 5897 5898 5899 5900 5900 5900 5899 5899 5899 5899 5899 5899 5899 5899 5899 5900 5900 5900 5900 5900 5900 5900 5899 5899 5898 5897 5896 5895 5894 5893 5892 5891 5890 5888 5887 5885 5884 5882 5881 5880 5878 5877 5876 5875 5874 5873
5885 5887 5888 5891 5892 5894 5896 5899 5895 5894 5895 5895 5895 5895 5895 5895 5895 5895 5895 5896 5896 5896 5896 5896 5896 5895 5895 5894 5893 5892 5891 5890 5889 5888 5887 5885 5884 5883 5881 5879 5878 5876 5875 5874 5873 5871 5870 5869 5868
5878 5880 5883 5886 5886 5887 5889 5894 5889 5889 5890 5890 5890 5890 5891 5891 5891 5891 5891 5891 5891 5892 5892 5892 5891 5891 5890 5890 5889 5888 5887 5886 5885 5883 5882 5881 5880 5878 5876 5875 5873 5872 5870 5869 5867 5866 5865 5863 5862